{"data":{"norad_id":45437,"intl_designator":"2020-020P","name":"ONEWEB-0092","alt_names":[],"object_type":"PAYLOAD","status":"ACTIVE","operator":null,"country":"UK","launch_date":"2020-03-21","launch_site_code":"TYMSC","launch_vehicle":null,"mission":null,"orbit_class":"UNKNOWN","rcs_meters":null,"size_class":null,"mass_kg":null,"dimensions":null,"purposes":["comms"],"wikipedia_slug":null,"has_3d_model":false,"image_url":null,"decayed_at":null,"tle_current":{"epoch":"2026-05-25T02:51:36.821952Z","epoch_age_seconds":71672,"freshness":"FRESH","line1":"1 45437U 20020P   26145.11917618  .00000534  00000+0  14584-2 0  9994","line2":"2 45437  87.8916  25.6517 0001986  89.2580 270.8776 13.11954068299764","mean_motion":13.11954068,"eccentricity":0.0001986,"inclination_deg":87.8916,"raan_deg":25.6517,"arg_perigee_deg":89.258,"mean_anomaly_deg":270.8776,"bstar":0.0014584,"rev_number":29976,"period_min":109.75994016278,"perigee_km":1214.1012517106,"apogee_km":1217.1174877687,"semimajor_km":7593.7463697397,"source":"CELESTRAK","updated_at":"2026-05-25T13:38:22.343569Z"}}}